This is the latest recevied weather packets stored in our database for station/object K3JSE-2. If no packets are shown the sender has not sent any weather packets the latest 10 day(s).
| Time | Temp. | Humidity | Pressure | Rain* | Wind** | Luminosity | Snow |
|---|---|---|---|---|---|---|---|
| 1778168083 | 13.89° C | 54% | 1011.5 hPa | 0 mm | - | - | - |
| 1778167823 | 13.89° C | 56% | 1011.5 hPa | 0 mm | - | - | - |
| 1778167615 | 13.89° C | 53% | 1011.6 hPa | 0 mm | - | - | - |
| 1778167529 | 13.89° C | 51% | 1011.6 hPa | 0 mm | - | - | - |
| 1778167273 | 13.89° C | 52% | 1011.8 hPa | 0 mm | - | - | - |
| 1778167024 | 13.33° C | 51% | 1011.8 hPa | 0 mm | - | - | - |
| 1778166974 | 13.33° C | 57% | 1011.8 hPa | 0 mm | - | - | - |
| 1778166727 | 13.33° C | 51% | 1011.9 hPa | 0 mm | - | - | - |
| 1778166478 | 13.33° C | 53% | 1011.9 hPa | 0 mm | - | - | - |
| 1778166233 | 13.33° C | 59% | 1011.9 hPa | 0 mm | - | - | - |
| 1778165978 | 12.78° C | 60% | 1011.9 hPa | 0 mm | - | - | - |
| 1778165698 | 12.78° C | 55% | 1012.1 hPa | 0 mm | - | - | - |
| 1778165560 | 12.78° C | 55% | 1012.1 hPa | 0 mm | - | - | - |
| 1778165423 | 12.78° C | 58% | 1012.1 hPa | 0 mm | - | - | - |
| 1778165143 | 12.78° C | 58% | 1012.2 hPa | 0 mm | - | - | - |
| 1778164924 | 12.22° C | 59% | 1012.2 hPa | 0 mm | - | - | - |
| 1778164876 | 12.22° C | 59% | 1012.2 hPa | 0 mm | - | - | - |
| 1778164613 | 12.22° C | 67% | 1012.3 hPa | 0 mm | - | - | - |
| 1778164353 | 12.22° C | 58% | 1012.2 hPa | 0 mm | - | - | - |
| 1778164270 | 12.22° C | 62% | 1012.2 hPa | 0 mm | - | - | - |
| 1778164063 | 12.22° C | 61% | 1012.2 hPa | 0 mm | - | - | - |
| 1778163818 | 12.22° C | 69% | 1012.3 hPa | 0 mm | - | - | - |
| 1778163585 | 12.22° C | 65% | 1012.3 hPa | 0 mm | - | - | - |
| 1778163547 | 12.22° C | 65% | 1012.3 hPa | 0 mm | - | - | - |
| 1778163308 | 12.22° C | 65% | 1012.5 hPa | 0 mm | - | - | - |
* Rain latest hour (hover to see other rain measurements)
** Current wind speed in m/s (hover to see current wind gust speed)